Weather History for Bennington, VT

Change the Weather History Date:

Wednesday, November 13, 2013

  Actual Average Record
Temperature  
Mean Temperature 25 °F 40 °F  
Max Temperature 33 °F 49 °F 64 °F (2005)
Min Temperature 16 °F 30 °F 16 °F (2001)
Degree Days  
Heating Degree Days 40 25  
Month to date heating degree days 331 310  
Since 1 July heating degree days 1085 1131  
Cooling Degree Days 0 0  
Month to date cooling degree days 0 0  
Year to date cooling degree days 503 313  
Moisture  
Dew Point 12 °F    
Average Humidity 53    
Maximum Humidity 74    
Minimum Humidity 32    
Precipitation  
Precipitation 0.00 in 0.08 in 0.69 in (2012)
Month to date precipitation 1.00 1.37  
Year to date precipitation 40.29 36.17  
Sea Level Pressure  
Sea Level Pressure 30.28 in    
Wind  
Wind Speed 5 mph (West)    
Max Wind Speed 14 mph    
Max Gust Speed 20 mph    
Visibility 10 miles    
Events      
T = Trace of Precipitation, MM = Missing Value Source: NWS Daily Summary

Daily Weather History Graph

Daily Weather History Graph

Search for Another Location

Airport:

Trip Planner

Search our weather history database for the weather conditions in past years. The results will help you decide how hot, cold, wet, or windy it might be!

Date:

Astronomy

Nov. 13, 2013 Rise Set
Actual Time 6:42 AM EST 4:31 PM EST
Civil Twilight 6:12 AM EST 5:01 PM EST
Nautical Twilight 5:38 AM EST 5:35 PM EST
Astronomical Twilight 5:04 AM EST 6:09 PM EST
Moon 2:22 PM EST (11/13) 2:27 AM EST (11/13)
Length of Visible Light 10h 49m
Length of Day
9h 48m
Waxing Gibbous, 84% of the Moon is Illuminated
Nov 13
Waxing Gibbous
Nov 17
Full
Nov 25
Last Quarter
Dec 2
New
Dec 9
First Quarter

Hourly Weather History & Observations

Time (EST) Temp. Windchill Dew Point Humidity Pressure Visibility Wind Dir Wind Speed Gust Speed Precip Events Conditions
12:54 AM 23.0 °F 14.7 °F 12.0 °F 63% 30.25 in 10.0 mi Variable 6.9 mph - N/A   Partly Cloudy
1:54 AM 23.0 °F 14.7 °F 12.0 °F 63% 30.25 in 10.0 mi WNW 6.9 mph - N/A   Scattered Clouds
2:54 AM 23.0 °F 18.4 °F 12.0 °F 63% 30.26 in 10.0 mi NW 3.5 mph - N/A   Overcast
3:54 AM 21.0 °F - 10.9 °F 65% 30.27 in 10.0 mi Calm Calm - N/A   Partly Cloudy
4:54 AM 19.0 °F 13.9 °F 10.9 °F 71% 30.28 in 10.0 mi Variable 3.5 mph - N/A   Partly Cloudy
5:54 AM 19.0 °F - 10.0 °F 68% 30.30 in 10.0 mi Calm Calm - N/A   Mostly Cloudy
6:54 AM 18.0 °F 11.1 °F 10.0 °F 71% 30.32 in 10.0 mi West 4.6 mph - N/A   Clear
7:54 AM 21.0 °F - 10.9 °F 65% 30.35 in 10.0 mi Calm Calm - N/A   Clear
8:54 AM 21.9 °F 14.5 °F 10.0 °F 60% 30.34 in 10.0 mi WNW 5.8 mph - N/A   Clear
9:51 AM 23.0 °F 14.7 °F 10.4 °F 59% 30.31 in 10.0 mi WNW 6.9 mph - N/A   Mostly Cloudy
9:54 AM 23.0 °F 11.7 °F 10.9 °F 60% 30.35 in 10.0 mi West 11.5 mph - N/A   Mostly Cloudy
10:16 AM 23.0 °F 13.9 °F 10.4 °F 59% 30.31 in 10.0 mi West 8.1 mph - N/A   Partly Cloudy
10:54 AM 26.1 °F 18.4 °F 12.0 °F 55% 30.34 in 10.0 mi NNW 6.9 mph - N/A   Partly Cloudy
11:54 AM 28.0 °F 19.3 °F 10.0 °F 47% 30.31 in 10.0 mi NNW 9.2 mph - N/A   Clear
12:54 PM 30.0 °F 21.7 °F 10.9 °F 45% 30.29 in 10.0 mi WNW 9.2 mph - N/A   Clear
1:54 PM 32.0 °F 24.8 °F 9.0 °F 38% 30.27 in 10.0 mi WNW 8.1 mph - N/A   Clear
2:54 PM 33.1 °F 24.9 °F 6.1 °F 32% 30.26 in 10.0 mi West 10.4 mph 16.1 mph N/A   Clear
3:54 PM 32.0 °F 24.8 °F 8.1 °F 37% 30.25 in 10.0 mi WNW 8.1 mph - N/A   Clear
4:54 PM 30.0 °F 26.5 °F 9.0 °F 41% 30.26 in 10.0 mi WSW 3.5 mph - N/A   Clear
5:54 PM 30.0 °F 25.2 °F 15.1 °F 54% 30.26 in 10.0 mi SW 4.6 mph - N/A   Partly Cloudy
6:54 PM 30.0 °F 26.5 °F 17.1 °F 59% 30.28 in 10.0 mi SSW 3.5 mph - N/A   Overcast
7:54 PM 28.9 °F - 16.0 °F 58% 30.25 in 10.0 mi Calm Calm - N/A   Clear
8:54 PM 28.0 °F - 16.0 °F 61% 30.23 in 10.0 mi Calm Calm - N/A   Clear
9:54 PM 24.1 °F - 16.0 °F 71% 30.22 in 10.0 mi Calm Calm - N/A   Clear
10:54 PM 23.0 °F - 15.1 °F 72% 30.20 in 10.0 mi Calm Calm - N/A   Clear
11:54 PM 25.0 °F 20.7 °F 16.0 °F 69% 30.16 in 10.0 mi SSW 3.5 mph - N/A   Clear